Stations météo

réclame
Mon MeteoGroup
Alghero, Italie (16520): Température de l'air & dewpoint: 18.01.2018 12:00:00 - 24.01.2018 12:00:00 (CET)Alghero, Italie (16520): Vitesse du vent: 18.01.2018 12:00:00 - 24.01.2018 12:00:00 (CET)Alghero, Italie (16520): Direction du vent: 18.01.2018 12:00:00 - 24.01.2018 12:00:00 (CET)Alghero, Italie (16520): reduced air pressure: 18.01.2018 12:00:00 - 24.01.2018 12:00:00 (CET)Alghero, Italie (16520): visibility: 18.01.2018 12:00:00 - 24.01.2018 12:00:00 (CET)
Date & Time tt [°C] td [°C] ff [km/h] ff [knt] dd ppp [hPa] vv [km]
24.01.2018 12:00:00 17,0 9,0 15 8 SSW - 10
24.01.2018 11:00:00 17,0 9,0 4 2 - - 10
24.01.2018 10:00:00 14,1 9,4 5 3 ENE 1029,5 28
24.01.2018 09:00:00 10,0 8,0 4 2 - - 10
24.01.2018 08:00:00 10,0 7,0 5 3 NNE - 10
24.01.2018 07:00:00 11,0 8,0 8 4 NE 1028,4 15
24.01.2018 06:00:00 11,0 8,0 9 5 E - 10
24.01.2018 05:00:00 11,0 7,0 8 4 E - 10
24.01.2018 04:00:00 11,6 6,9 8 4 E 1027,3 15
24.01.2018 03:00:00 12,0 7,0 9 5 SE - 10
24.01.2018 02:00:00 12,0 8,0 8 4 ESE - 10
24.01.2018 01:00:00 11,4 7,6 5 3 SE 1026,7 15
24.01.2018 00:00:00 12,0 8,0 5 3 S - 10
23.01.2018 23:00:00 11,0 7,0 5 3 SSW - 10
23.01.2018 22:00:00 11,1 7,4 9 5 SW 1025,7 15
23.01.2018 21:00:00 12,0 8,0 8 4 SW - 10
23.01.2018 20:00:00 12,0 9,0 8 4 SSW - 10
23.01.2018 19:00:00 10,9 8,6 8 4 SW 1024,8 15
23.01.2018 18:00:00 12,0 9,0 8 4 WSW - 10
23.01.2018 17:00:00 14,0 9,0 8 4 W - 10
23.01.2018 16:00:00 14,2 9,7 15 8 W 1022,9 25
23.01.2018 15:00:00 15,0 11,0 15 8 W - 10
23.01.2018 14:00:00 17,0 11,0 8 4 W - 10
23.01.2018 13:00:00 16,5 9,6 4 2 E 1022,0 12
23.01.2018 12:00:00 15,0 10,0 9 5 NNW - 10
23.01.2018 11:00:00 15,0 11,0 11 6 W - 10
23.01.2018 10:00:00 15,4 10,7 5 3 WSW 1021,1 12
23.01.2018 09:00:00 12,0 9,0 4 2 - - 10
23.01.2018 08:00:00 12,0 9,0 4 2 - - 10
23.01.2018 07:00:00 13,2 9,2 5 3 WNW 1019,7 15
23.01.2018 06:00:00 14,0 9,0 9 5 NW - 10
23.01.2018 05:00:00 13,0 9,0 13 7 WNW - 10
23.01.2018 04:00:00 13,6 9,4 13 7 WNW 1019,2 30
23.01.2018 03:00:00 14,0 11,0 15 8 WNW - 10
23.01.2018 02:00:00 14,0 11,0 11 6 W - 10
23.01.2018 01:00:00 14,3 11,0 16 9 W 1019,5 30
23.01.2018 00:00:00 14,0 11,0 13 7 W - 10
22.01.2018 23:00:00 14,0 11,0 9 5 W - 10
22.01.2018 22:00:00 14,2 10,7 11 6 WNW 1019,7 30
22.01.2018 21:00:00 14,0 10,0 15 8 W - 10
22.01.2018 20:00:00 14,0 9,0 11 6 W - 10
22.01.2018 19:00:00 14,7 8,7 16 9 NW 1019,6 30
22.01.2018 18:00:00 14,0 9,0 11 6 NW - 10
22.01.2018 17:00:00 15,0 9,0 13 7 NNW - 10
22.01.2018 16:00:00 15,9 9,8 15 8 NNW 1018,8 30
22.01.2018 15:00:00 16,0 10,0 21 11 NW - 10
22.01.2018 14:00:00 16,0 10,0 28 15 NW - 10
22.01.2018 13:00:00 16,4 9,9 24 13 NW 1018,7 15
22.01.2018 12:00:00 17,0 10,0 21 11 NW - 10
22.01.2018 11:00:00 16,0 10,0 15 8 NW - 10
22.01.2018 10:00:00 15,8 10,0 21 11 NW 1018,6 15
22.01.2018 09:00:00 15,0 10,0 13 7 NW - 10
22.01.2018 08:00:00 14,0 9,0 8 4 NW - 10
22.01.2018 07:00:00 14,2 9,7 13 7 NW 1017,7 15
22.01.2018 06:00:00 14,0 10,0 9 5 NW - 10
22.01.2018 05:00:00 15,0 10,0 18 10 NW - 10
22.01.2018 04:00:00 14,8 10,4 24 13 NW 1017,2 20
22.01.2018 03:00:00 15,0 11,0 21 11 NW - 10
22.01.2018 02:00:00 15,0 11,0 21 11 NW - 10
22.01.2018 01:00:00 15,2 11,1 15 8 NW 1017,6 20
22.01.2018 00:00:00 15,0 11,0 16 9 NW - 10
21.01.2018 23:00:00 15,0 11,0 18 10 NNW - 10
21.01.2018 22:00:00 14,8 10,4 11 6 NW 1016,9 20
21.01.2018 21:00:00 14,0 10,0 13 7 NNW - 10
21.01.2018 20:00:00 14,0 9,0 11 6 NNW - 10
21.01.2018 19:00:00 14,1 8,6 15 8 NNW 1015,3 25
21.01.2018 18:00:00 14,0 8,0 16 9 NW - 10
21.01.2018 17:00:00 15,0 7,0 24 13 NW - 10
21.01.2018 16:00:00 15,9 6,7 21 11 NW 1013,8 25
21.01.2018 15:00:00 16,0 7,0 24 13 NW - 10
21.01.2018 14:00:00 16,0 7,0 28 15 NW - 10
21.01.2018 13:00:00 15,6 6,4 28 15 NW 1012,5 25
21.01.2018 12:00:00 17,0 8,0 31 17 WNW - 10
21.01.2018 11:00:00 16,0 11,0 24 13 WNW - 10
21.01.2018 10:00:00 15,8 11,2 31 17 WNW 1010,2 20
21.01.2018 09:00:00 15,0 11,0 28 15 WNW - 10
21.01.2018 08:00:00 15,0 11,0 22 12 WNW - 10
21.01.2018 07:00:00 14,9 10,5 24 13 WNW 1011,2 25
21.01.2018 06:00:00 15,0 10,0 26 14 WNW - 10
21.01.2018 05:00:00 15,0 10,0 24 13 W - 10
21.01.2018 04:00:00 14,7 9,9 18 10 W 1012,2 25
21.01.2018 03:00:00 14,0 10,0 26 14 W - 10
21.01.2018 02:00:00 14,0 9,0 24 13 W - 10
21.01.2018 01:00:00 13,9 8,7 18 10 W 1014,2 25
21.01.2018 00:00:00 14,0 9,0 21 11 W - 10
20.01.2018 23:00:00 13,0 9,0 21 11 W - 10
20.01.2018 22:00:00 13,1 9,1 24 13 W 1016,5 25
20.01.2018 21:00:00 12,0 9,0 24 13 W - 10
20.01.2018 20:00:00 12,0 8,0 22 12 W - 10
20.01.2018 19:00:00 12,4 7,1 18 10 W 1017,5 25
20.01.2018 18:00:00 12,0 6,0 11 6 W - 10
20.01.2018 17:00:00 13,0 6,0 15 8 WNW - 10
20.01.2018 16:00:00 13,5 5,7 16 9 WNW 1017,9 45
20.01.2018 15:00:00 13,0 4,0 18 10 NW - 10
20.01.2018 14:00:00 14,0 4,0 18 10 NW - 10
20.01.2018 13:00:00 13,2 5,4 21 11 NW 1018,7 45
20.01.2018 12:00:00 13,0 5,0 18 10 NNW - 10
20.01.2018 11:00:00 13,0 5,0 16 9 NNW - 10
20.01.2018 10:00:00 12,4 3,7 21 11 NW 1019,6 45
20.01.2018 09:00:00 12,0 4,0 11 6 NW - 10
20.01.2018 08:00:00 12,0 5,0 16 9 NW - 10
20.01.2018 07:00:00 11,7 6,9 13 7 NNW 1017,9 30
20.01.2018 06:00:00 12,0 6,0 13 7 NW - 10
20.01.2018 05:00:00 11,0 7,0 13 7 NW - 10
20.01.2018 04:00:00 11,2 6,1 9 5 NNW 1017,1 25
20.01.2018 03:00:00 12,0 6,0 15 8 NNW - 10
20.01.2018 02:00:00 12,0 7,0 8 4 NNW - 10
20.01.2018 01:00:00 12,5 7,1 16 9 NNW 1017,5 25
20.01.2018 00:00:00 13,0 7,0 15 8 NW - 10
19.01.2018 23:00:00 13,0 6,0 15 8 NW - 10
19.01.2018 22:00:00 12,5 7,3 11 6 WNW 1017,4 25
19.01.2018 21:00:00 12,0 6,0 8 4 NW - 10
19.01.2018 20:00:00 13,0 7,0 9 5 NW - 10
19.01.2018 19:00:00 12,8 7,7 9 5 NW 1016,9 25
19.01.2018 18:00:00 13,0 10,0 5 3 WNW - 10
19.01.2018 17:00:00 13,0 10,0 5 3 W - 10
19.01.2018 16:00:00 13,8 10,1 9 5 WNW 1016,0 35
19.01.2018 15:00:00 14,0 10,0 15 8 WNW - 10
19.01.2018 14:00:00 14,0 10,0 16 9 WNW - 10
19.01.2018 13:00:00 14,3 9,9 15 8 WNW 1016,9 20
19.01.2018 12:00:00 14,0 10,0 13 7 W - 10
19.01.2018 11:00:00 14,0 9,0 11 6 W - 10
19.01.2018 10:00:00 14,0 9,4 9 5 W 1017,8 10
19.01.2018 09:00:00 12,0 10,0 5 3 W - 10
19.01.2018 08:00:00 11,0 9,0 2 1 - - 10
19.01.2018 07:00:00 12,1 9,1 5 3 W 1017,5 10
19.01.2018 06:00:00 12,0 9,0 5 3 WSW - 10
19.01.2018 05:00:00 13,0 9,0 11 6 WSW - 10
19.01.2018 04:00:00 12,7 9,2 9 5 W 1018,4 20
19.01.2018 03:00:00 13,0 9,0 15 8 W - 10
19.01.2018 02:00:00 13,0 9,0 18 10 WSW - 10
19.01.2018 01:00:00 12,7 8,6 18 10 WSW 1020,1 10
19.01.2018 00:00:00 13,0 9,0 16 9 WSW - 10
18.01.2018 23:00:00 11,0 8,0 8 4 SW - 10
18.01.2018 22:00:00 11,0 7,8 11 6 SSW 1021,2 10
18.01.2018 21:00:00 11,0 7,0 8 4 WSW - 10
18.01.2018 20:00:00 13,0 8,0 9 5 SW - 10
18.01.2018 19:00:00 12,5 8,1 8 4 WSW 1021,9 10
18.01.2018 18:00:00 12,0 8,0 8 4 WSW - 10
18.01.2018 17:00:00 13,0 8,0 11 6 W - 10
18.01.2018 16:00:00 13,2 7,2 13 7 W 1022,7 10
18.01.2018 15:00:00 14,0 7,0 15 8 W - 10
18.01.2018 14:00:00 14,0 7,0 15 8 W - 10
18.01.2018 13:00:00 13,6 6,4 15 8 W 1024,3 10
18.01.2018 12:00:00 14,0 6,0 15 8 WNW - 10

tt = Température de l'air
td = dewpoint
ff = Vitesse du vent
dd = Direction du vent
ppp = reduced air pressure
vv = visibility

stations d'obs. à proximité